Angel Fire, NM

5:14 PM MST on February 27, 2017 (GMT -0700)
Angel Fire

Weather History for KAXX - December, 2012

Change the Weather History Date:

Saturday, December 8, 2012

  Actual Average (KSKX) Record (KSKX)
Temperature  
Mean Temperature 30 °F -  
Max Temperature 41 °F 39 °F 53 °F (2015)
Min Temperature 18 °F 10 °F -9 °F (2005)
Degree Days  
Heating Degree Days 36    
Moisture  
Dew Point 20 °F    
Average Humidity 58    
Maximum Humidity 87    
Minimum Humidity 41    
Precipitation  
Precipitation 0.00 in - - ()
Sea Level Pressure  
Sea Level Pressure 29.90 in    
Wind  
Wind Speed 15 mph (WSW)    
Max Wind Speed 33 mph    
Max Gust Speed 41 mph    
Visibility 10 miles    
Events      
Averages and records for this station are not official NWS values.
T = Trace of Precipitation, MM = Missing Value Source: NWS Daily Summary

Daily Weather History Graph

Daily Weather History Graph

Search for Another Location

Airport or City:

Trip Planner

Search our weather history database for the weather conditions in past years. The results will help you decide how hot, cold, wet, or windy it might be!

Date:

Astronomy

Dec. 08, 2012 Rise Set
Actual Time 7:00 AM MST 4:45 PM MST
Civil Twilight 6:32 AM MST 5:14 PM MST
Nautical Twilight 6:00 AM MST 5:46 PM MST
Astronomical Twilight 5:28 AM MST 6:17 PM MST
Moon 1:35 AM MST (12/8) 1:10 PM MST (12/8)
Length of Visible Light 10h 42m
Length of Day
9h 44m
Waning Crescent, 27% of the Moon is Illuminated
Dec 8
Waning Crescent
Dec 13
New
Dec 19
First Quarter
Dec 28
Full
Jan 4
Last Quarter

Hourly Weather History & Observations

Time (MST) Temp. Windchill Dew Point Humidity Pressure Visibility Wind Dir Wind Speed Gust Speed Precip Events Conditions
12:15 AM 18.7 °F - 15.4 °F 87% 29.98 in 10.0 mi Calm Calm - N/A   Clear
12:35 AM 22.1 °F 13.7 °F 18.1 °F 85% 29.98 in 10.0 mi SE 6.9 mph - N/A   Clear
12:55 AM 26.1 °F 16.8 °F 20.3 °F 79% 29.97 in 10.0 mi SE 9.2 mph - N/A   Clear
1:15 AM 27.7 °F 18.8 °F 20.7 °F 75% 29.97 in 10.0 mi SE 9.2 mph - N/A   Clear
1:35 AM 27.5 °F 17.4 °F 20.8 °F 76% 29.97 in 10.0 mi SE 11.5 mph - N/A   Clear
1:55 AM 29.3 °F - 21.0 °F 71% 29.97 in 10.0 mi Calm Calm - N/A   Clear
2:15 AM 27.5 °F 22.2 °F 20.7 °F 75% 29.97 in 10.0 mi ESE 4.6 mph - N/A   Clear
2:35 AM 25.9 °F 21.7 °F 19.9 °F 78% 29.96 in 10.0 mi East 3.5 mph - N/A   Clear
2:55 AM 28.9 °F 21.9 °F 21.2 °F 73% 29.95 in 10.0 mi WSW 6.9 mph - N/A   Clear
3:15 AM 30.6 °F 21.8 °F 21.9 °F 70% 29.95 in 10.0 mi SW 10.4 mph 16.1 mph N/A   Clear
3:35 AM 30.7 °F 22.0 °F 21.9 °F 70% 29.94 in 10.0 mi SW 10.4 mph 16.1 mph N/A   Clear
4:15 AM 30.2 °F 21.9 °F 21.4 °F 70% 29.93 in 10.0 mi SW 9.2 mph - N/A   Clear
4:35 AM 30.0 °F 19.5 °F 21.7 °F 71% 29.93 in 10.0 mi SW 13.8 mph - N/A   Clear
5:15 AM 29.5 °F 19.9 °F 21.4 °F 72% 29.93 in 10.0 mi WSW 11.5 mph - N/A   Clear
5:35 AM 30.2 °F 19.3 °F 21.9 °F 71% 29.93 in 10.0 mi West 15.0 mph 19.6 mph N/A   Clear
5:55 AM 30.6 °F 19.0 °F 22.1 °F 71% 29.93 in 10.0 mi WSW 17.3 mph 21.9 mph N/A   Clear
6:15 AM 30.0 °F 17.9 °F 22.1 °F 72% 29.93 in 10.0 mi WSW 18.4 mph 25.3 mph N/A   Clear
6:35 AM 30.2 °F 18.5 °F 22.5 °F 73% 29.93 in 10.0 mi WSW 17.3 mph 25.3 mph N/A   Clear
6:55 AM 30.0 °F 18.3 °F 22.6 °F 74% 29.93 in 10.0 mi WSW 17.3 mph 27.6 mph N/A   Clear
7:15 AM 30.0 °F 16.9 °F 23.0 °F 75% 29.92 in 10.0 mi WSW 21.9 mph 27.6 mph N/A   Clear
7:35 AM 30.2 °F 16.8 °F 23.2 °F 75% 29.92 in 10.0 mi WSW 23.0 mph 32.2 mph N/A   Clear
8:15 AM 31.5 °F 18.5 °F 23.4 °F 72% 29.92 in 10.0 mi WSW 23.0 mph 33.4 mph N/A   Clear
8:35 AM 32.4 °F 20.0 °F 23.9 °F 71% 29.92 in 10.0 mi WSW 21.9 mph 36.8 mph N/A   Clear
8:55 AM 33.4 °F 21.4 °F 23.7 °F 68% 29.91 in 10.0 mi WSW 21.9 mph 36.8 mph N/A   Clear
9:15 AM 34.5 °F 21.1 °F 23.9 °F 65% 29.91 in 10.0 mi WSW 29.9 mph 39.1 mph N/A   Clear
9:35 AM 34.9 °F 20.9 °F 23.7 °F 64% 29.91 in 10.0 mi West 33.4 mph 41.4 mph N/A   Clear
9:55 AM 35.4 °F 22.3 °F 23.5 °F 62% 29.91 in 10.0 mi West 29.9 mph 40.3 mph N/A   Clear
10:15 AM 36.9 °F 24.9 °F 22.8 °F 57% 29.91 in 10.0 mi West 26.5 mph 38.0 mph N/A   Clear
10:55 AM 38.5 °F 26.9 °F 22.1 °F 52% 29.89 in 10.0 mi West 27.6 mph 38.0 mph N/A   Clear
11:15 AM 39.6 °F 28.3 °F 22.6 °F 51% 29.88 in 10.0 mi WSW 27.6 mph 36.8 mph N/A   Clear
11:35 AM 39.4 °F 27.5 °F 22.3 °F 50% 29.87 in 10.0 mi West 31.1 mph 38.0 mph N/A   Clear
11:55 AM 39.7 °F 27.9 °F 21.4 °F 48% 29.86 in 10.0 mi West 31.1 mph 39.1 mph N/A   Clear
12:15 PM 40.1 °F 28.1 °F 21.0 °F 47% 29.84 in 10.0 mi West 33.4 mph 40.3 mph N/A   Clear
12:35 PM 40.8 °F 29.2 °F 20.7 °F 45% 29.84 in 10.0 mi West 32.2 mph 40.3 mph N/A   Clear
12:55 PM 41.0 °F 29.8 °F 19.8 °F 43% 29.84 in 10.0 mi West 29.9 mph 40.3 mph N/A   Clear
1:15 PM 41.2 °F 30.7 °F 19.6 °F 42% 29.84 in 10.0 mi West 26.5 mph 39.1 mph N/A   Clear
1:55 PM 40.8 °F 30.9 °F 20.3 °F 44% 29.84 in 10.0 mi West 23.0 mph 39.1 mph N/A   Clear
2:15 PM 41.2 °F 30.7 °F 19.2 °F 41% 29.83 in 10.0 mi WSW 26.5 mph 35.7 mph N/A   Clear
2:35 PM 41.2 °F 30.5 °F 20.1 °F 43% 29.82 in 10.0 mi West 27.6 mph 34.5 mph N/A   Clear
2:55 PM 40.5 °F 29.7 °F 20.1 °F 44% 29.83 in 10.0 mi WSW 26.5 mph 39.1 mph N/A   Clear
3:15 PM 40.5 °F 29.1 °F 19.2 °F 43% 29.83 in 10.0 mi WSW 29.9 mph 38.0 mph N/A   Clear
3:35 PM 40.1 °F 29.2 °F 19.8 °F 44% 29.83 in 10.0 mi WSW 26.5 mph 39.1 mph N/A   Clear
3:55 PM 39.4 °F 28.1 °F 19.9 °F 46% 29.83 in 10.0 mi WSW 27.6 mph 35.7 mph N/A   Clear
4:15 PM 38.3 °F 28.7 °F 19.4 °F 47% 29.84 in 10.0 mi WSW 18.4 mph 25.3 mph N/A   Clear
4:35 PM 37.8 °F 27.4 °F 19.4 °F 48% 29.84 in 10.0 mi WSW 20.7 mph 32.2 mph N/A   Clear
4:55 PM 37.2 °F 26.1 °F 19.0 °F 48% 29.85 in 10.0 mi WSW 23.0 mph 28.8 mph N/A   Clear
5:15 PM 37.0 °F 26.2 °F 18.5 °F 47% 29.85 in 10.0 mi WSW 21.9 mph 28.8 mph N/A   Clear
5:35 PM 36.9 °F 25.6 °F 17.8 °F 46% 29.85 in 10.0 mi WSW 23.0 mph 32.2 mph N/A   Clear
6:55 PM 35.6 °F 24.0 °F 17.2 °F 47% 29.89 in 10.0 mi WSW 23.0 mph - N/A   Clear
7:15 PM 35.8 °F 24.5 °F 16.5 °F 46% 29.89 in 10.0 mi WSW 21.9 mph 32.2 mph N/A   Clear
7:35 PM 35.2 °F 24.1 °F 16.3 °F 46% 29.89 in 10.0 mi WSW 20.7 mph 27.6 mph N/A   Clear
7:55 PM 34.9 °F 24.2 °F 16.2 °F 46% 29.89 in 10.0 mi WSW 18.4 mph 25.3 mph N/A   Clear
8:15 PM 34.5 °F 23.1 °F 16.2 °F 47% 29.90 in 10.0 mi WSW 20.7 mph 24.2 mph N/A   Clear
9:35 PM 34.3 °F 23.2 °F 15.4 °F 46% 29.89 in 10.0 mi WSW 19.6 mph 26.5 mph N/A   Clear
9:55 PM 34.2 °F 23.0 °F 15.4 °F 46% 29.89 in 10.0 mi WSW 19.6 mph 24.2 mph N/A   Clear
10:15 PM 33.8 °F 23.2 °F 15.6 °F 47% 29.89 in 10.0 mi WSW 17.3 mph - N/A   Clear
10:35 PM 33.4 °F 23.5 °F 15.6 °F 48% 29.89 in 10.0 mi WSW 15.0 mph - N/A   Clear
11:35 PM 33.3 °F 22.8 °F 13.8 °F 45% 29.88 in 10.0 mi WSW 16.1 mph 23.0 mph N/A   Clear
11:55 PM 33.8 °F 22.8 °F 13.1 °F 43% 29.88 in 10.0 mi WSW 18.4 mph 25.3 mph N/A   Clear